| time (UTC) | temp F | wind direction | speed MPH | gust MPH | rain 1hr in | rain 24hr in | rain mn in | humidity % | barometer mb |
| 20260510045730 | 44 | 198 | 0.0 | 0.0 | 0.00 | 0.00 | 0.00 | 71 | 1019.6 |
| 20260510045226 | 45 | 187 | 0.0 | 0.0 | 0.00 | 0.00 | 0.00 | 73 | 1019.6 |
| 20260510044723 | 45 | 113 | 0.0 | 0.0 | 0.00 | 0.00 | 0.00 | 74 | 1019.3 |
| 20260510044221 | 45 | 204 | 0.0 | 0.0 | 0.00 | 0.00 | 0.00 | 68 | 1019.2 |
| 20260510043716 | 45 | 155 | 0.0 | 0.0 | 0.00 | 0.00 | 0.00 | 69 | 1019.1 |
| 20260510043213 | 45 | 154 | 0.0 | 0.0 | 0.00 | 0.00 | 0.00 | 74 | 1019.5 |
| 20260510042710 | 46 | 147 | 0.0 | 0.0 | 0.00 | 0.00 | 0.00 | 73 | 1018.7 |
| 20260510042206 | 46 | 133 | 0.0 | 0.0 | 0.00 | 0.00 | 0.00 | 71 | 1019.1 |
| 20260510041703 | 46 | 179 | 0.0 | 0.0 | 0.00 | 0.00 | 0.00 | 67 | 1019.1 |
| 20260510041201 | 47 | 188 | 0.0 | 0.0 | 0.00 | 0.00 | 0.00 | 63 | 1019.1 |
| 20260510040657 | 46 | 177 | 0.0 | 0.0 | 0.00 | 0.00 | 0.00 | 68 | 1018.8 |
| 20260510040154 | 46 | 140 | 0.0 | 0.0 | 0.00 | 0.00 | 0.00 | 69 | 1019.0 |
| 20260510035649 | 47 | 108 | 0.0 | 0.0 | 0.00 | 0.00 | 0.00 | 69 | 1018.7 |
| 20260510035145 | 47 | 148 | 0.0 | 0.0 | 0.00 | 0.00 | 0.00 | 67 | 1018.7 |
| 20260510034642 | 48 | 129 | 0.0 | 0.0 | 0.00 | 0.00 | 0.00 | 69 | 1018.7 |
| 20260510034139 | 49 | 127 | 0.0 | 0.0 | 0.00 | 0.00 | 0.00 | 66 | 1018.7 |
| 20260510033635 | 49 | 181 | 0.0 | 0.0 | 0.00 | 0.00 | 0.00 | 60 | 1018.5 |
| 20260510033133 | 49 | 175 | 0.0 | 0.0 | 0.00 | 0.00 | 0.00 | 60 | 1018.5 |
| 20260510032629 | 49 | 175 | 0.0 | 0.0 | 0.00 | 0.00 | 0.00 | 60 | 1018.4 |
| 20260510032125 | 50 | 177 | 0.0 | 0.0 | 0.00 | 0.00 | 0.00 | 58 | 1018.4 |
| 20260510031620 | 50 | 177 | 0.0 | 0.0 | 0.00 | 0.00 | 0.00 | 62 | 1018.4 |
| 20260510031117 | 51 | 160 | 0.0 | 0.0 | 0.00 | 0.00 | 0.00 | 59 | 1018.4 |
| 20260510030611 | 52 | 154 | 0.0 | 0.0 | 0.00 | 0.00 | 0.00 | 61 | 1018.2 |
| 20260510030109 | 51 | 150 | 0.0 | 0.0 | 0.00 | 0.00 | 0.00 | 54 | 1018.0 |
| 20260510025606 | 51 | 176 | 0.0 | 0.0 | 0.00 | 0.00 | 0.00 | 64 | 1017.9 |
| 20260510025104 | 51 | 112 | 0.0 | 0.0 | 0.00 | 0.00 | 0.00 | 58 | 1017.9 |
| 20260510024600 | 51 | 183 | 0.0 | 0.0 | 0.00 | 0.00 | 0.00 | 57 | 1017.8 |
| 20260510024056 | 52 | 183 | 0.0 | 0.0 | 0.00 | 0.00 | 0.00 | 64 | 1017.3 |
| 20260510023553 | 53 | 170 | 0.0 | 0.0 | 0.00 | 0.00 | 0.00 | 60 | 1017.6 |
| 20260510023050 | 53 | 215 | 0.0 | 0.0 | 0.00 | 0.00 | 0.00 | 57 | 1017.5 |
| 20260510022549 | 54 | 137 | 0.0 | 0.0 | 0.00 | 0.00 | 0.00 | 63 | 1017.4 |
| 20260510022044 | 55 | 175 | 0.0 | 0.0 | 0.00 | 0.00 | 0.00 | 58 | 1017.1 |
| 20260510021540 | 55 | 142 | 0.0 | 0.0 | 0.00 | 0.00 | 0.00 | 60 | 1017.5 |
| 20260510021038 | 56 | 160 | 0.0 | 0.0 | 0.00 | 0.00 | 0.00 | 57 | 1017.3 |
| 20260510020532 | 56 | 174 | 0.0 | 0.0 | 0.00 | 0.00 | 0.00 | 52 | 1017.3 |
| 20260510020028 | 57 | 157 | 0.0 | 0.0 | 0.00 | 0.00 | 0.00 | 57 | 1017.0 |
| 20260510015524 | 57 | 158 | 0.0 | 0.0 | 0.00 | 0.00 | 0.00 | 55 | 1017.1 |
| 20260510015020 | 58 | 127 | 0.0 | 0.0 | 0.00 | 0.00 | 0.00 | 58 | 1016.9 |
| 20260510014517 | 59 | 132 | 0.0 | 0.0 | 0.00 | 0.00 | 0.00 | 54 | 1016.7 |
| 20260510014014 | 60 | 147 | 0.0 | 0.0 | 0.00 | 0.00 | 0.00 | 48 | 1017.1 |
| 20260510013509 | 61 | 144 | 0.0 | 0.0 | 0.00 | 0.00 | 0.00 | 46 | 1017.0 |
| 20260510013005 | 61 | 220 | 0.0 | 0.0 | 0.00 | 0.00 | 0.00 | 42 | 1017.0 |
| 20260510012459 | 61 | 196 | 0.0 | 0.0 | 0.00 | 0.00 | 0.00 | 42 | 1017.1 |
| 20260510011955 | 61 | 185 | 0.0 | 0.0 | 0.00 | 0.00 | 0.00 | 43 | 1016.9 |
| 20260510011449 | 61 | 175 | 0.0 | 0.0 | 0.00 | 0.00 | 0.00 | 42 | 1017.0 |
| 20260510010945 | 63 | 165 | 0.0 | 0.0 | 0.00 | 0.00 | 0.00 | 47 | 1017.0 |
| 20260510010443 | 64 | 152 | 0.0 | 0.0 | 0.00 | 0.00 | 0.00 | 43 | 1016.9 |
| 20260510005940 | 65 | 153 | 0.0 | 0.0 | 0.00 | 0.00 | 0.00 | 36 | 1016.8 |
| 20260510005436 | 66 | 161 | 0.0 | 0.0 | 0.00 | 0.00 | 0.00 | 31 | 1016.9 |
| 20260510004933 | 66 | 99 | 0.0 | 0.0 | 0.00 | 0.00 | 0.00 | 34 | 1017.0 |
| 20260510004430 | 67 | 118 | 0.0 | 1.0 | 0.00 | 0.00 | 0.00 | 32 | 1016.8 |
| 20260510003929 | 67 | 78 | 1.0 | 1.0 | 0.00 | 0.00 | 0.00 | 30 | 1017.0 |
| 20260510003425 | 68 | 244 | 2.0 | 2.0 | 0.00 | 0.00 | 0.00 | 31 | 1016.9 |
| 20260510002924 | 68 | 60 | 1.0 | 2.0 | 0.00 | 0.00 | 0.00 | 31 | 1017.1 |
| 20260510002422 | 68 | 112 | 0.0 | 1.0 | 0.00 | 0.00 | 0.00 | 33 | 1017.3 |
| 20260510001918 | 68 | 135 | 1.0 | 1.0 | 0.00 | 0.00 | 0.00 | 32 | 1017.3 |
| 20260510001416 | 68 | 132 | 1.0 | 1.0 | 0.00 | 0.00 | 0.00 | 34 | 1017.3 |
| 20260510000913 | 68 | 102 | 1.0 | 1.0 | 0.00 | 0.00 | 0.00 | 32 | 1017.4 |
| 20260510000411 | 68 | 86 | 1.0 | 2.0 | 0.00 | 0.00 | 0.00 | 32 | 1017.0 |
| 20260509235905 | 69 | 297 | 0.0 | 0.0 | 0.00 | 0.00 | 0.00 | 33 | 1017.1 |
| 20260509235403 | 69 | 171 | 0.0 | 0.0 | 0.00 | 0.00 | 0.00 | 30 | 1017.0 |
| 20260509234858 | 68 | 101 | 1.0 | 1.0 | 0.00 | 0.00 | 0.00 | 31 | 1017.5 |
| 20260509234356 | 69 | 105 | 0.0 | 2.0 | 0.00 | 0.00 | 0.00 | 31 | 1017.4 |
| 20260509233854 | 69 | 75 | 2.0 | 3.0 | 0.00 | 0.00 | 0.00 | 31 | 1017.4 |
| 20260509233351 | 69 | 101 | 2.0 | 3.0 | 0.00 | 0.00 | 0.00 | 32 | 1017.1 |
| 20260509232846 | 68 | 72 | 1.0 | 2.0 | 0.00 | 0.00 | 0.00 | 29 | 1018.0 |
| 20260509232345 | 67 | 105 | 2.0 | 3.0 | 0.00 | 0.00 | 0.00 | 29 | 1017.8 |
| 20260509231840 | 67 | 36 | 1.0 | 1.0 | 0.00 | 0.00 | 0.00 | 29 | 1017.8 |
| 20260509231338 | 67 | 26 | 2.0 | 3.0 | 0.00 | 0.00 | 0.00 | 29 | 1017.9 |
| 20260509230836 | 66 | 8 | 2.0 | 3.0 | 0.00 | 0.00 | 0.00 | 31 | 1018.1 |
| 20260509230332 | 66 | 59 | 3.0 | 5.0 | 0.00 | 0.00 | 0.00 | 30 | 1018.2 |
| 20260509225827 | 66 | 156 | 3.0 | 5.0 | 0.00 | 0.00 | 0.00 | 31 | 1018.6 |
| 20260509225324 | 66 | 37 | 4.0 | 5.0 | 0.00 | 0.00 | 0.00 | 31 | 1018.7 |
| 20260509224821 | 66 | 212 | 1.0 | 1.0 | 0.00 | 0.00 | 0.00 | 29 | 1018.6 |
| 20260509224317 | 66 | 359 | 2.0 | 3.0 | 0.00 | 0.00 | 0.00 | 29 | 1018.5 |
| 20260509223813 | 67 | 66 | 4.0 | 6.0 | 0.00 | 0.00 | 0.00 | 29 | 1018.2 |
| 20260509223310 | 67 | 291 | 1.0 | 1.0 | 0.00 | 0.00 | 0.00 | 29 | 1018.2 |
| 20260509222807 | 68 | 224 | 2.0 | 5.0 | 0.00 | 0.00 | 0.00 | 26 | 1018.1 |
| 20260509222306 | 70 | 33 | 6.0 | 10.0 | 0.00 | 0.00 | 0.00 | 26 | 1017.3 |
| 20260509221758 | 72 | 63 | 3.0 | 5.0 | 0.00 | 0.00 | 0.00 | 23 | 1016.4 |
| 20260509221256 | 73 | 83 | 1.0 | 1.0 | 0.00 | 0.00 | 0.00 | 21 | 1016.4 |
| 20260509220751 | 73 | 291 | 4.0 | 6.0 | 0.00 | 0.00 | 0.00 | 21 | 1016.3 |
| 20260509220248 | 73 | 69 | 1.0 | 1.0 | 0.00 | 0.00 | 0.00 | 21 | 1016.4 |
| 20260509215743 | 74 | 149 | 1.0 | 1.0 | 0.00 | 0.00 | 0.00 | 19 | 1016.4 |
| 20260509215240 | 75 | 164 | 0.0 | 1.0 | 0.00 | 0.00 | 0.00 | 20 | 1016.3 |
| 20260509214737 | 76 | 233 | 1.0 | 1.0 | 0.00 | 0.00 | 0.00 | 19 | 1016.5 |
| 20260509214234 | 76 | 208 | 1.0 | 1.0 | 0.00 | 0.00 | 0.00 | 20 | 1016.8 |
| 20260509213731 | 75 | 32 | 6.0 | 8.0 | 0.00 | 0.00 | 0.00 | 22 | 1016.4 |
| 20260509213226 | 75 | 65 | 3.0 | 5.0 | 0.00 | 0.00 | 0.00 | 21 | 1016.7 |
| 20260509212724 | 76 | 105 | 2.0 | 2.0 | 0.00 | 0.00 | 0.00 | 19 | 1016.9 |
| 20260509212221 | 75 | 137 | 1.0 | 2.0 | 0.00 | 0.00 | 0.00 | 21 | 1016.8 |
| 20260509211717 | 77 | 246 | 3.0 | 5.0 | 0.00 | 0.00 | 0.00 | 19 | 1017.1 |
| 20260509211214 | 76 | 86 | 1.0 | 1.0 | 0.00 | 0.00 | 0.00 | 20 | 1017.0 |
| 20260509210710 | 73 | 322 | 2.0 | 3.0 | 0.00 | 0.00 | 0.00 | 21 | 1016.9 |
| 20260509210208 | 74 | 306 | 4.0 | 6.0 | 0.00 | 0.00 | 0.00 | 21 | 1017.1 |
| 20260509205707 | 74 | 284 | 6.0 | 8.0 | 0.00 | 0.00 | 0.00 | 20 | 1017.1 |
| 20260509205207 | 75 | 265 | 1.0 | 1.0 | 0.00 | 0.00 | 0.00 | 19 | 1017.1 |
| 20260509204703 | 77 | 94 | 3.0 | 3.0 | 0.00 | 0.00 | 0.00 | 21 | 1016.8 |
| 20260509204200 | 73 | 261 | 1.0 | 1.0 | 0.00 | 0.00 | 0.00 | 23 | 1016.9 |
| 20260509203655 | 70 | 156 | 3.0 | 3.0 | 0.00 | 0.00 | 0.00 | 23 | 1017.1 |
| 20260509203154 | 71 | 84 | 3.0 | 5.0 | 0.00 | 0.00 | 0.00 | 23 | 1017.0 |
| 20260509202649 | 72 | 299 | 5.0 | 7.0 | 0.00 | 0.00 | 0.00 | 20 | 1017.0 |
| 20260509202144 | 73 | 67 | 2.0 | 2.0 | 0.00 | 0.00 | 0.00 | 19 | 1017.1 |
| 20260509201640 | 73 | 205 | 1.0 | 1.0 | 0.00 | 0.00 | 0.00 | 20 | 1017.1 |
| 20260509201137 | 74 | 304 | 3.0 | 3.0 | 0.00 | 0.00 | 0.00 | 20 | 1017.1 |
| 20260509200633 | 76 | 300 | 5.0 | 6.0 | 0.00 | 0.00 | 0.00 | 21 | 1017.4 |
| 20260509200128 | 76 | 265 | 1.0 | 1.0 | 0.00 | 0.00 | 0.00 | 18 | 1017.4 |
| 20260509195625 | 75 | 268 | 7.0 | 9.0 | 0.00 | 0.00 | 0.00 | 20 | 1017.4 |
| 20260509195120 | 74 | 100 | 0.0 | 1.0 | 0.00 | 0.00 | 0.00 | 23 | 1017.0 |
| 20260509194619 | 73 | 328 | 0.0 | 1.0 | 0.00 | 0.00 | 0.00 | 22 | 1017.1 |
| 20260509194117 | 74 | 219 | 3.0 | 5.0 | 0.00 | 0.00 | 0.00 | 21 | 1016.9 |
| 20260509193612 | 75 | 223 | 1.0 | 3.0 | 0.00 | 0.00 | 0.00 | 19 | 1017.0 |
| 20260509193108 | 74 | 250 | 4.0 | 6.0 | 0.00 | 0.00 | 0.00 | 21 | 1016.8 |
| 20260509192605 | 74 | 209 | 1.0 | 2.0 | 0.00 | 0.00 | 0.00 | 19 | 1017.1 |
| 20260509192054 | 74 | 242 | 1.0 | 1.0 | 0.00 | 0.00 | 0.00 | 20 | 1017.1 |
| 20260509191549 | 74 | 359 | 1.0 | 1.0 | 0.00 | 0.00 | 0.00 | 19 | 1017.3 |
| 20260509191045 | 76 | 272 | 1.0 | 2.0 | 0.00 | 0.00 | 0.00 | 19 | 1017.3 |
| 20260509190542 | 73 | 3 | 2.0 | 2.0 | 0.00 | 0.00 | 0.00 | 22 | 1017.4 |
| 20260509190040 | 73 | 233 | 3.0 | 3.0 | 0.00 | 0.00 | 0.00 | 20 | 1017.4 |
| 20260509185537 | 73 | 341 | 3.0 | 5.0 | 0.00 | 0.00 | 0.00 | 19 | 1017.3 |
| 20260509185033 | 73 | 3 | 6.0 | 7.0 | 0.00 | 0.00 | 0.00 | 19 | 1017.1 |
| 20260509184532 | 71 | 31 | 3.0 | 5.0 | 0.00 | 0.00 | 0.00 | 23 | 1017.1 |
| 20260509184028 | 69 | 274 | 1.0 | 2.0 | 0.00 | 0.00 | 0.00 | 26 | 1016.9 |
| 20260509183523 | 70 | 224 | 0.0 | 1.0 | 0.00 | 0.00 | 0.00 | 25 | 1017.3 |
| 20260509183019 | 69 | 144 | 1.0 | 1.0 | 0.00 | 0.00 | 0.00 | 29 | 1017.3 |
| 20260509182516 | 70 | 247 | 2.0 | 6.0 | 0.00 | 0.00 | 0.00 | 25 | 1017.3 |
| 20260509182013 | 70 | 221 | 3.0 | 6.0 | 0.00 | 0.00 | 0.00 | 22 | 1017.1 |
| 20260509181511 | 67 | 199 | 1.0 | 2.0 | 0.00 | 0.00 | 0.00 | 33 | 1017.1 |
| 20260509181010 | 68 | 83 | 1.0 | 1.0 | 0.00 | 0.00 | 0.00 | 37 | 1017.4 |
| 20260509180503 | 71 | 2 | 4.0 | 6.0 | 0.00 | 0.00 | 0.00 | 23 | 1017.6 |
| 20260509180002 | 72 | 140 | 2.0 | 3.0 | 0.00 | 0.00 | 0.00 | 23 | 1017.3 |
| 20260509175457 | 72 | 247 | 2.0 | 2.0 | 0.00 | 0.00 | 0.00 | 23 | 1017.6 |
| 20260509174954 | 75 | 265 | 7.0 | 10.0 | 0.00 | 0.00 | 0.00 | 19 | 1017.8 |
| 20260509174450 | 75 | 209 | 3.0 | 3.0 | 0.00 | 0.00 | 0.00 | 19 | 1017.5 |
| 20260509173944 | 74 | 233 | 7.0 | 9.0 | 0.00 | 0.00 | 0.00 | 19 | 1017.3 |
| 20260509173439 | 73 | 64 | 4.0 | 6.0 | 0.00 | 0.00 | 0.00 | 20 | 1017.5 |
| 20260509172936 | 73 | 198 | 1.0 | 2.0 | 0.00 | 0.00 | 0.00 | 25 | 1017.6 |
| 20260509172433 | 73 | 86 | 3.0 | 3.0 | 0.00 | 0.00 | 0.00 | 21 | 1017.4 |
| 20260509171928 | 73 | 195 | 1.0 | 1.0 | 0.00 | 0.00 | 0.00 | 22 | 1017.5 |
| 20260509171424 | 73 | 117 | 3.0 | 6.0 | 0.00 | 0.00 | 0.00 | 21 | 1017.8 |
| 20260509170921 | 72 | 271 | 2.0 | 5.0 | 0.00 | 0.00 | 0.00 | 25 | 1017.5 |
| 20260509170417 | 71 | 343 | 2.0 | 3.0 | 0.00 | 0.00 | 0.00 | 24 | 1017.5 |
| 20260509165913 | 72 | 108 | 0.0 | 1.0 | 0.00 | 0.00 | 0.00 | 25 | 1017.9 |
| 20260509165407 | 74 | 209 | 1.0 | 1.0 | 0.00 | 0.00 | 0.00 | 25 | 1017.6 |
| 20260509164903 | 74 | 249 | 1.0 | 3.0 | 0.00 | 0.00 | 0.00 | 26 | 1017.4 |
| 20260509164359 | 73 | 70 | 1.0 | 2.0 | 0.00 | 0.00 | 0.00 | 28 | 1017.4 |
| 20260509163855 | 72 | 261 | 2.0 | 2.0 | 0.00 | 0.00 | 0.00 | 24 | 1017.8 |
| 20260509163352 | 71 | 273 | 2.0 | 3.0 | 0.00 | 0.00 | 0.00 | 26 | 1017.5 |
| 20260509162851 | 72 | 29 | 1.0 | 2.0 | 0.00 | 0.00 | 0.00 | 29 | 1017.8 |
| 20260509162344 | 71 | 107 | 0.0 | 1.0 | 0.00 | 0.00 | 0.00 | 34 | 1017.5 |
| 20260509161841 | 70 | 44 | 1.0 | 1.0 | 0.00 | 0.00 | 0.00 | 30 | 1017.8 |
| 20260509161337 | 68 | 156 | 0.0 | 0.0 | 0.00 | 0.00 | 0.00 | 29 | 1017.6 |
| 20260509160833 | 69 | 107 | 0.0 | 1.0 | 0.00 | 0.00 | 0.00 | 38 | 1017.5 |
| 20260509160329 | 68 | 139 | 1.0 | 1.0 | 0.00 | 0.00 | 0.00 | 32 | 1017.9 |
| 20260509155824 | 67 | 276 | 0.0 | 0.0 | 0.00 | 0.00 | 0.00 | 37 | 1018.1 |
| 20260509155321 | 67 | 117 | 1.0 | 1.0 | 0.00 | 0.00 | 0.00 | 40 | 1017.9 |
| 20260509154817 | 68 | 272 | 2.0 | 2.0 | 0.00 | 0.00 | 0.00 | 36 | 1018.0 |
| 20260509154313 | 67 | 111 | 1.0 | 2.0 | 0.00 | 0.00 | 0.00 | 32 | 1018.2 |
| 20260509153810 | 66 | 203 | 0.0 | 0.0 | 0.00 | 0.00 | 0.00 | 32 | 1018.0 |
| 20260509153307 | 66 | 115 | 0.0 | 0.0 | 0.00 | 0.00 | 0.00 | 42 | 1018.0 |
| 20260509152804 | 66 | 87 | 0.0 | 1.0 | 0.00 | 0.00 | 0.00 | 37 | 1018.0 |
| 20260509152300 | 65 | 145 | 0.0 | 0.0 | 0.00 | 0.00 | 0.00 | 35 | 1018.4 |
| 20260509151757 | 64 | 59 | 0.0 | 0.0 | 0.00 | 0.00 | 0.00 | 38 | 1018.4 |
| 20260509151253 | 62 | 102 | 0.0 | 0.0 | 0.00 | 0.00 | 0.00 | 43 | 1018.2 |
| 20260509150752 | 61 | 99 | 1.0 | 2.0 | 0.00 | 0.00 | 0.00 | 37 | 1018.7 |
| 20260509150250 | 59 | 106 | 0.0 | 1.0 | 0.00 | 0.00 | 0.00 | 40 | 1018.5 |
| 20260509145746 | 58 | 96 | 0.0 | 0.0 | 0.00 | 0.00 | 0.00 | 45 | 1018.6 |
| 20260509145246 | 57 | 134 | 0.0 | 0.0 | 0.00 | 0.00 | 0.00 | 49 | 1018.7 |
| 20260509144743 | 56 | 119 | 0.0 | 0.0 | 0.00 | 0.00 | 0.00 | 50 | 1018.5 |
| 20260509144239 | 55 | 131 | 0.0 | 0.0 | 0.00 | 0.00 | 0.00 | 49 | 1018.8 |
| 20260509143737 | 55 | 143 | 0.0 | 0.0 | 0.00 | 0.00 | 0.00 | 45 | 1018.8 |
| 20260509143234 | 54 | 116 | 0.0 | 0.0 | 0.00 | 0.00 | 0.00 | 60 | 1018.8 |
| 20260509142730 | 53 | 145 | 1.0 | 1.0 | 0.00 | 0.00 | 0.00 | 61 | 1019.1 |
| 20260509142226 | 53 | 150 | 0.0 | 0.0 | 0.00 | 0.00 | 0.00 | 63 | 1019.0 |
| 20260509141722 | 52 | 136 | 0.0 | 0.0 | 0.00 | 0.00 | 0.00 | 70 | 1018.7 |
| 20260509141220 | 51 | 134 | 0.0 | 0.0 | 0.00 | 0.00 | 0.00 | 72 | 1019.0 |
| 20260509140716 | 51 | 174 | 0.0 | 0.0 | 0.00 | 0.00 | 0.00 | 62 | 1019.0 |
| 20260509140214 | 51 | 133 | 0.0 | 0.0 | 0.00 | 0.00 | 0.00 | 60 | 1018.8 |
| 20260509135711 | 50 | 97 | 0.0 | 0.0 | 0.00 | 0.00 | 0.00 | 56 | 1019.1 |
| 20260509135209 | 50 | 128 | 0.0 | 0.0 | 0.00 | 0.00 | 0.00 | 73 | 1019.0 |
| 20260509134705 | 50 | 133 | 0.0 | 0.0 | 0.00 | 0.00 | 0.00 | 75 | 1019.0 |
| 20260509134203 | 51 | 134 | 0.0 | 0.0 | 0.00 | 0.00 | 0.00 | 70 | 1019.0 |
| 20260509133700 | 49 | 152 | 0.0 | 0.0 | 0.00 | 0.00 | 0.00 | 61 | 1019.2 |
| 20260509133157 | 46 | 141 | 0.0 | 0.0 | 0.00 | 0.00 | 0.00 | 71 | 1019.0 |
| 20260509132655 | 44 | 154 | 0.0 | 0.0 | 0.00 | 0.00 | 0.00 | 78 | 1018.8 |
| 20260509132153 | 42 | 173 | 0.0 | 0.0 | 0.00 | 0.00 | 0.00 | 81 | 1019.0 |
| 20260509131649 | 41 | 162 | 0.0 | 0.0 | 0.00 | 0.00 | 0.00 | 83 | 1018.8 |
| 20260509131146 | 40 | 155 | 0.0 | 0.0 | 0.00 | 0.00 | 0.00 | 83 | 1018.8 |
| 20260509130642 | 40 | 130 | 0.0 | 0.0 | 0.00 | 0.00 | 0.00 | 82 | 1018.6 |
| 20260509130138 | 39 | 135 | 0.0 | 0.0 | 0.00 | 0.00 | 0.00 | 84 | 1018.5 |
| 20260509125635 | 39 | 155 | 0.0 | 0.0 | 0.00 | 0.00 | 0.00 | 75 | 1018.6 |
| 20260509125132 | 40 | 125 | 0.0 | 0.0 | 0.00 | 0.00 | 0.00 | 83 | 1018.7 |
| 20260509124628 | 39 | 181 | 0.0 | 0.0 | 0.00 | 0.00 | 0.00 | 76 | 1018.6 |
| 20260509124125 | 39 | 192 | 0.0 | 0.0 | 0.00 | 0.00 | 0.00 | 82 | 1018.4 |
| 20260509123623 | 39 | 208 | 0.0 | 0.0 | 0.00 | 0.00 | 0.00 | 76 | 1018.2 |
| 20260509123120 | 39 | 210 | 0.0 | 0.0 | 0.00 | 0.00 | 0.00 | 74 | 1018.2 |
| 20260509122615 | 39 | 152 | 0.0 | 0.0 | 0.00 | 0.00 | 0.00 | 75 | 1018.2 |
| 20260509122113 | 39 | 222 | 0.0 | 0.0 | 0.00 | 0.00 | 0.00 | 74 | 1018.5 |
| 20260509121609 | 38 | 219 | 0.0 | 0.0 | 0.00 | 0.00 | 0.00 | 78 | 1018.2 |
| 20260509121107 | 38 | 194 | 0.0 | 0.0 | 0.00 | 0.00 | 0.00 | 75 | 1018.0 |
| 20260509120605 | 37 | 204 | 0.0 | 0.0 | 0.00 | 0.00 | 0.00 | 77 | 1018.2 |
| 20260509115600 | 37 | 191 | 0.0 | 0.0 | 0.00 | 0.00 | 0.00 | 79 | 1018.1 |
| 20260509115058 | 36 | 207 | 0.0 | 0.0 | 0.00 | 0.00 | 0.00 | 79 | 1018.0 |
| 20260509114555 | 36 | 210 | 0.0 | 0.0 | 0.00 | 0.00 | 0.00 | 85 | 1017.9 |
| 20260509114054 | 36 | 161 | 0.0 | 0.0 | 0.00 | 0.00 | 0.00 | 85 | 1017.8 |
| 20260509113552 | 37 | 161 | 0.0 | 0.0 | 0.00 | 0.00 | 0.00 | 84 | 1017.9 |
| 20260509113049 | 37 | 155 | 0.0 | 0.0 | 0.00 | 0.00 | 0.00 | 83 | 1017.9 |
| 20260509112545 | 37 | 171 | 0.0 | 0.0 | 0.00 | 0.00 | 0.00 | 78 | 1018.0 |
| 20260509112043 | 37 | 183 | 0.0 | 0.0 | 0.00 | 0.00 | 0.00 | 78 | 1018.0 |
| 20260509111540 | 37 | 148 | 0.0 | 0.0 | 0.00 | 0.00 | 0.00 | 77 | 1018.0 |
| 20260509111037 | 37 | 191 | 0.0 | 0.0 | 0.00 | 0.00 | 0.00 | 78 | 1017.8 |
| 20260509110534 | 36 | 201 | 0.0 | 0.0 | 0.00 | 0.00 | 0.00 | 79 | 1017.9 |
| 20260509110031 | 37 | 146 | 0.0 | 0.0 | 0.00 | 0.00 | 0.00 | 82 | 1017.9 |
| 20260509105529 | 37 | 166 | 0.0 | 0.0 | 0.00 | 0.00 | 0.00 | 81 | 1017.6 |
| 20260509105026 | 37 | 166 | 0.0 | 0.0 | 0.00 | 0.00 | 0.00 | 80 | 1017.9 |
| 20260509104523 | 37 | 184 | 0.0 | 0.0 | 0.00 | 0.00 | 0.00 | 79 | 1017.5 |
| 20260509104020 | 37 | 146 | 0.0 | 0.0 | 0.00 | 0.00 | 0.00 | 81 | 1017.6 |
| 20260509103518 | 37 | 145 | 0.0 | 0.0 | 0.00 | 0.00 | 0.00 | 84 | 1017.6 |
| 20260509103016 | 37 | 153 | 0.0 | 0.0 | 0.00 | 0.00 | 0.00 | 82 | 1017.9 |
| 20260509102513 | 37 | 195 | 0.0 | 0.0 | 0.00 | 0.00 | 0.00 | 83 | 1017.6 |
| 20260509102010 | 37 | 190 | 0.0 | 0.0 | 0.00 | 0.00 | 0.00 | 82 | 1017.8 |
| 20260509101506 | 37 | 138 | 0.0 | 0.0 | 0.00 | 0.00 | 0.00 | 80 | 1017.8 |
| 20260509101003 | 37 | 164 | 0.0 | 0.0 | 0.00 | 0.00 | 0.00 | 82 | 1018.0 |
| 20260509100500 | 37 | 183 | 0.0 | 0.0 | 0.00 | 0.00 | 0.00 | 81 | 1018.0 |
| 20260509095957 | 38 | 152 | 0.0 | 0.0 | 0.00 | 0.00 | 0.00 | 85 | 1017.8 |
| 20260509095453 | 38 | 134 | 0.0 | 0.0 | 0.00 | 0.00 | 0.00 | 84 | 1018.2 |
| 20260509094951 | 38 | 162 | 0.0 | 0.0 | 0.00 | 0.00 | 0.00 | 80 | 1018.0 |
| 20260509094447 | 38 | 193 | 0.0 | 0.0 | 0.00 | 0.00 | 0.00 | 79 | 1018.1 |
| 20260509093945 | 38 | 180 | 0.0 | 0.0 | 0.00 | 0.00 | 0.00 | 83 | 1017.9 |
| 20260509093442 | 38 | 162 | 0.0 | 0.0 | 0.00 | 0.00 | 0.00 | 80 | 1017.8 |
| 20260509092940 | 39 | 162 | 0.0 | 0.0 | 0.00 | 0.00 | 0.00 | 81 | 1017.9 |
| 20260509092438 | 39 | 128 | 0.0 | 0.0 | 0.00 | 0.00 | 0.00 | 81 | 1017.9 |
| 20260509091936 | 40 | 111 | 0.0 | 0.0 | 0.00 | 0.00 | 0.00 | 79 | 1017.9 |
| 20260509091433 | 39 | 187 | 0.0 | 0.0 | 0.00 | 0.00 | 0.00 | 73 | 1018.0 |
| 20260509090930 | 38 | 167 | 0.0 | 0.0 | 0.00 | 0.00 | 0.00 | 76 | 1017.9 |
| 20260509090427 | 39 | 165 | 0.0 | 0.0 | 0.00 | 0.00 | 0.00 | 78 | 1018.0 |
| 20260509085925 | 39 | 126 | 0.0 | 0.0 | 0.00 | 0.00 | 0.00 | 79 | 1018.0 |
| 20260509085421 | 38 | 185 | 0.0 | 0.0 | 0.00 | 0.00 | 0.00 | 79 | 1017.5 |
| 20260509084917 | 39 | 184 | 0.0 | 0.0 | 0.00 | 0.00 | 0.00 | 81 | 1017.8 |
| 20260509084415 | 39 | 172 | 0.0 | 0.0 | 0.00 | 0.00 | 0.00 | 80 | 1018.0 |
| 20260509083912 | 40 | 109 | 0.0 | 0.0 | 0.00 | 0.00 | 0.00 | 79 | 1018.0 |
| 20260509083409 | 40 | 196 | 0.0 | 0.0 | 0.00 | 0.00 | 0.00 | 74 | 1017.6 |
| 20260509082906 | 39 | 196 | 0.0 | 0.0 | 0.00 | 0.00 | 0.00 | 75 | 1017.8 |
| 20260509082403 | 39 | 198 | 0.0 | 0.0 | 0.00 | 0.00 | 0.00 | 77 | 1018.0 |
| 20260509081900 | 39 | 161 | 0.0 | 0.0 | 0.00 | 0.00 | 0.00 | 75 | 1017.9 |
| 20260509081357 | 39 | 156 | 0.0 | 0.0 | 0.00 | 0.00 | 0.00 | 77 | 1017.9 |
| 20260509080854 | 40 | 126 | 0.0 | 0.0 | 0.00 | 0.00 | 0.00 | 76 | 1017.9 |
| 20260509080352 | 40 | 124 | 0.0 | 0.0 | 0.00 | 0.00 | 0.00 | 77 | 1017.8 |
| 20260509075851 | 39 | 161 | 0.0 | 0.0 | 0.00 | 0.00 | 0.00 | 74 | 1017.6 |
| 20260509075347 | 40 | 167 | 0.0 | 0.0 | 0.00 | 0.00 | 0.00 | 71 | 1018.0 |
| 20260509074844 | 40 | 167 | 0.0 | 0.0 | 0.00 | 0.00 | 0.00 | 74 | 1018.2 |
| 20260509074342 | 40 | 168 | 0.0 | 0.0 | 0.00 | 0.00 | 0.00 | 75 | 1018.1 |
| 20260509073838 | 40 | 161 | 0.0 | 0.0 | 0.00 | 0.00 | 0.00 | 74 | 1017.6 |
| 20260509073335 | 40 | 160 | 0.0 | 0.0 | 0.00 | 0.00 | 0.00 | 74 | 1018.0 |
| 20260509072831 | 41 | 160 | 0.0 | 0.0 | 0.00 | 0.00 | 0.00 | 75 | 1018.0 |
| 20260509072328 | 41 | 149 | 0.0 | 0.0 | 0.00 | 0.00 | 0.00 | 73 | 1017.9 |
| 20260509071824 | 41 | 121 | 0.0 | 0.0 | 0.00 | 0.00 | 0.00 | 73 | 1018.2 |
| 20260509071322 | 41 | 185 | 0.0 | 0.0 | 0.00 | 0.00 | 0.00 | 71 | 1017.9 |
| 20260509070819 | 41 | 199 | 0.0 | 0.0 | 0.00 | 0.00 | 0.00 | 73 | 1018.1 |
| 20260509070315 | 41 | 130 | 0.0 | 0.0 | 0.00 | 0.00 | 0.00 | 76 | 1018.2 |
| 20260509065812 | 42 | 121 | 0.0 | 0.0 | 0.00 | 0.00 | 0.00 | 76 | 1018.4 |
| 20260509065308 | 41 | 192 | 0.0 | 0.0 | 0.00 | 0.00 | 0.00 | 73 | 1018.2 |
| 20260509064804 | 41 | 193 | 0.0 | 0.0 | 0.00 | 0.00 | 0.00 | 75 | 1018.0 |
| 20260509064302 | 42 | 139 | 0.0 | 0.0 | 0.00 | 0.00 | 0.00 | 77 | 1018.1 |
| 20260509063759 | 43 | 139 | 0.0 | 0.0 | 0.00 | 0.00 | 0.00 | 72 | 1018.2 |
| 20260509063255 | 43 | 138 | 0.0 | 0.0 | 0.00 | 0.00 | 0.00 | 70 | 1018.1 |
| 20260509062753 | 44 | 184 | 0.0 | 0.0 | 0.00 | 0.00 | 0.00 | 62 | 1018.2 |
| 20260509062249 | 42 | 192 | 0.0 | 0.0 | 0.00 | 0.00 | 0.00 | 67 | 1018.0 |
| 20260509061747 | 43 | 167 | 0.0 | 0.0 | 0.00 | 0.00 | 0.00 | 76 | 1018.1 |
| 20260509061244 | 44 | 121 | 0.0 | 0.0 | 0.00 | 0.00 | 0.00 | 73 | 1018.0 |
| 20260509060741 | 44 | 150 | 0.0 | 0.0 | 0.00 | 0.00 | 0.00 | 69 | 1018.1 |
| 20260509060238 | 44 | 160 | 0.0 | 0.0 | 0.00 | 0.00 | 0.00 | 67 | 1018.4 |
| 20260509055734 | 45 | 188 | 0.0 | 0.0 | 0.00 | 0.00 | 0.00 | 64 | 1018.2 |
| 20260509055229 | 45 | 144 | 0.0 | 0.0 | 0.00 | 0.00 | 0.00 | 63 | 1018.2 |
| 20260509054726 | 45 | 191 | 0.0 | 0.0 | 0.00 | 0.00 | 0.00 | 63 | 1018.1 |
| 20260509054223 | 45 | 168 | 0.0 | 0.0 | 0.00 | 0.00 | 0.00 | 64 | 1018.1 |
| 20260509053722 | 46 | 170 | 0.0 | 0.0 | 0.00 | 0.00 | 0.00 | 63 | 1018.2 |
| 20260509053218 | 46 | 151 | 0.0 | 0.0 | 0.00 | 0.00 | 0.00 | 61 | 1018.4 |
| 20260509052716 | 46 | 142 | 0.0 | 0.0 | 0.00 | 0.00 | 0.00 | 60 | 1017.9 |
| 20260509052214 | 47 | 144 | 0.0 | 0.0 | 0.00 | 0.00 | 0.00 | 63 | 1017.9 |
| 20260509051711 | 47 | 181 | 0.0 | 0.0 | 0.00 | 0.00 | 0.00 | 62 | 1018.1 |
| 20260509051209 | 46 | 176 | 0.0 | 0.0 | 0.00 | 0.00 | 0.00 | 52 | 1017.9 |
| 20260509050706 | 47 | 176 | 0.0 | 0.0 | 0.00 | 0.00 | 0.00 | 54 | 1018.2 |
| 20260509050202 | 47 | 175 | 0.0 | 0.0 | 0.00 | 0.00 | 0.00 | 56 | 1017.9 |